Regional Weather Roundup
Issued by NWS

Home | Current Version | Previous Version | Graphics & Text | Print | Product List | Glossary Off
Versions: 1 2 3 4 5 6 7 8 9 10 11 12 13 14 15 16 17 18 19 20 21 22 23 24 25 26 27 28 29 30 31 32 33 34 35 36 37 38 39 40 41 42 43 44 45 46 47 48 49 50

894
ASUS43 KTOP 272208
RWRKS

WEATHER ROUNDUP FOR KANSAS
NATIONAL WEATHER SERVICE GOODLAND KS
500 PM CDT SAT AUG 27 2016

NOTE:  "FAIR" INDICATES FEW OR NO CLOUDS BELOW 12,000 FEET WITH NO
SIGNIFICANT WEATHER AND/OR OBSTRUCTIONS TO VISIBILITY.

KSZ001>006-013>018-027>032-041>047-272300-
NORTHWEST KANSAS

CITY           SKY/WX    TMP DP  RH WIND       PRES   REMARKS
GOODLAND       CLOUDY    82  55  39 SE10      30.01F
HAYS           PTSUNNY   84  64  51 SE13      29.98S
HILL CITY      SUNNY     85  66  53 SE12      29.99S
RUSSELL        MOSUNNY   85  67  54 SE13      29.97F
$$

KSZ061>065-074>080-084>089-272300-
SOUTHWEST KANSAS

CITY           SKY/WX    TMP DP  RH WIND       PRES   REMARKS
DODGE CITY     MOSUNNY   87  62  43 S14       29.97F
ELKHART          N/A     89  59  36 S13         N/A
GARDEN CITY    SUNNY     87  60  40 SE14G22   29.96F
GREAT BEND     MOSUNNY   88  64  45 SE15      29.97F
LIBERAL        CLOUDY    82  61  47 S13       29.97F
PRATT          SUNNY     86  61  43 SE10      29.97F
$$

KSZ066>073-081>083-090>101-272300-
SOUTHEAST KANSAS

CITY           SKY/WX    TMP DP  RH WIND       PRES   REMARKS
CHANUTE        LGT RAIN  85  72  65 SW12      29.98S
COFFEYVILLE    SUNNY     92  69  47 S9        29.96F HX  97
HUTCHINSON     SUNNY     88  68  51 SE8       29.97F
PARSONS        CLOUDY    89  69  51 CALM      29.98F
WICHITA INTL   MOSUNNY   89  68  49 SE6       29.96F
WICHITA JABRA  SUNNY     86  71  60 S9        29.97F
WICHITA MCCONL MOSUNNY   87  69  55 SW6       29.97F
WINFIELD       SUNNY     88  70  55 S7        29.98F
$$

KSZ007>012-019>026-033>040-048>060-102>105-272300-
NORTHEAST KANSAS

CITY           SKY/WX    TMP DP  RH WIND       PRES   REMARKS
CONCORDIA      SUNNY     84  66  54 SE8       29.99F
EMPORIA        MOSUNNY   84  72  67 CALM      29.98F
LAWRENCE       PTSUNNY   86  73  65 CALM      29.98F
MANHATTAN      MOSUNNY   84  71  65 E5        29.97F
MARYSVILLE     SUNNY     82  70  65 S8        29.99F
OLATHE IND     PTSUNNY   85  73  67 SE9       30.00F
OLATHE EXE     MOSUNNY   85  72  65 S10       30.00F
SALINA         MOSUNNY   86  68  54 SE6       29.97F
TOPEKA BILLARD MOSUNNY  N/A N/A N/A MISG      29.98F
TOPEKA FORBES  SUNNY     88  71  57 S6        29.99F
$$




USA.gov is the U.S. government's official web portal to all federal, state and local government web resources and services.